Weather History for KSAZ - March, 2014

Change the Weather History Date:

Wednesday, March 19, 2014

  Actual Average Record
Temperature  
Mean Temperature 29 °F -  
Max Temperature 35 °F 36 °F 71 °F (2012)
Min Temperature 23 °F 17 °F 0 °F (2013)
Degree Days  
Heating Degree Days 36    
Moisture  
Dew Point 23 °F    
Average Humidity 75    
Maximum Humidity 86    
Minimum Humidity 60    
Precipitation  
Precipitation 0.00 in - - ()
Sea Level Pressure  
Sea Level Pressure 29.89 in    
Wind  
Wind Speed 8 mph (NW)    
Max Wind Speed 16 mph    
Max Gust Speed 18 mph    
Visibility 10 miles    
Events      
Averages and records for this station are not official NWS values.
T = Trace of Precipitation, MM = Missing Value Source: NWS Daily Summary

Daily Weather History Graph

Daily Weather History Graph

Search for Another Location

Airport or City:

Trip Planner

Search our weather history database for the weather conditions in past years. The results will help you decide how hot, cold, wet, or windy it might be!

Date:

Astronomy

Mar. 19, 2014 Rise Set
Actual Time 7:24 AM CDT 7:30 PM CDT
Civil Twilight 6:54 AM CDT 8:00 PM CDT
Nautical Twilight 6:18 AM CDT 8:35 PM CDT
Astronomical Twilight 5:42 AM CDT 9:12 PM CDT
Moon 11:02 PM CDT (3/19) 8:39 AM CDT (3/19)
Length of Visible Light 13h 06m
Length of Day
12h 06m
Waning Gibbous, 91% of the Moon is Illuminated
Mar 19
Waning Gibbous
Mar 23
Last Quarter
Mar 30
New
Apr 7
First Quarter
Apr 15
Full

Hourly Weather History & Observations

Time (CDT) Temp. Windchill Dew Point Humidity Pressure Visibility Wind Dir Wind Speed Gust Speed Precip Events Conditions
12:13 AM 28.4 °F 23.3 °F 24.8 °F 86% 29.86 in 10.0 mi NNW 4.6 mph - N/A   Overcast
12:33 AM 28.4 °F 21.2 °F 24.8 °F 86% 29.86 in 10.0 mi NNW 6.9 mph - N/A   Overcast
12:54 AM 28.4 °F 21.2 °F 24.8 °F 86% 29.86 in 10.0 mi NNW 6.9 mph - N/A   Overcast
1:13 AM 28.4 °F 21.2 °F 24.8 °F 86% 29.86 in 10.0 mi North 6.9 mph - N/A   Overcast
1:33 AM 28.4 °F 22.2 °F 24.8 °F 86% 29.86 in 10.0 mi North 5.8 mph - N/A   Overcast
1:54 AM 28.4 °F 21.2 °F 23.0 °F 80% 29.86 in 10.0 mi North 6.9 mph - N/A   Overcast
2:13 AM 28.4 °F 20.4 °F 23.0 °F 80% 29.86 in 10.0 mi North 8.1 mph - N/A   Overcast
2:33 AM 28.4 °F 22.2 °F 23.0 °F 80% 29.86 in 10.0 mi North 5.8 mph - N/A   Overcast
2:53 AM 28.4 °F 21.2 °F 23.0 °F 80% 29.85 in 10.0 mi NNW 6.9 mph - N/A   Overcast
3:13 AM 28.4 °F 21.2 °F 21.2 °F 74% 29.85 in 10.0 mi NNW 6.9 mph - N/A   Overcast
3:33 AM 28.4 °F 19.7 °F 21.2 °F 74% 29.85 in 10.0 mi NNW 9.2 mph - N/A   Overcast
3:53 AM 28.4 °F 21.2 °F 21.2 °F 74% 29.85 in 10.0 mi NNW 6.9 mph - N/A   Overcast
4:13 AM 28.4 °F 19.7 °F 21.2 °F 74% 29.85 in 10.0 mi NNW 9.2 mph - N/A   Overcast
4:33 AM 28.4 °F 20.4 °F 21.2 °F 74% 29.85 in 10.0 mi NNW 8.1 mph - N/A   Overcast
4:53 AM 28.4 °F 19.1 °F 21.2 °F 74% 29.85 in 10.0 mi NNW 10.4 mph - N/A   Overcast
5:13 AM 28.4 °F 19.7 °F 21.2 °F 74% 29.86 in 10.0 mi NNW 9.2 mph - N/A   Overcast
5:33 AM 28.4 °F 21.2 °F 21.2 °F 74% 29.86 in 10.0 mi NW 6.9 mph - N/A   Overcast
5:53 AM 28.4 °F 22.2 °F 21.2 °F 74% 29.86 in 10.0 mi NW 5.8 mph - N/A   Overcast
6:13 AM 28.4 °F 22.2 °F 21.2 °F 74% 29.86 in 10.0 mi NW 5.8 mph - N/A   Overcast
6:33 AM 28.4 °F 21.2 °F 21.2 °F 74% 29.86 in 10.0 mi NW 6.9 mph - N/A   Overcast
6:53 AM 28.4 °F 22.2 °F 23.0 °F 80% 29.86 in 10.0 mi NW 5.8 mph - N/A   Overcast
7:14 AM 28.4 °F 22.2 °F 23.0 °F 80% 29.87 in 10.0 mi NW 5.8 mph - N/A   Overcast
7:33 AM 28.4 °F 20.4 °F 21.2 °F 74% 29.88 in 10.0 mi NW 8.1 mph - N/A   Overcast
7:54 AM 28.4 °F 22.2 °F 21.2 °F 74% 29.88 in 10.0 mi NW 5.8 mph - N/A   Overcast
8:13 AM 28.4 °F 21.2 °F 24.8 °F 86% 29.88 in 10.0 mi WNW 6.9 mph - N/A   Overcast
8:33 AM 28.4 °F 19.1 °F 24.8 °F 86% 29.88 in 10.0 mi NW 10.4 mph - N/A   Overcast
8:54 AM 28.4 °F 20.4 °F 24.8 °F 86% 29.88 in 10.0 mi NW 8.1 mph - N/A   Overcast
9:13 AM 28.4 °F 19.7 °F 24.8 °F 86% 29.88 in 10.0 mi NW 9.2 mph - N/A   Overcast
9:33 AM 28.4 °F 19.1 °F 24.8 °F 86% 29.89 in 10.0 mi WNW 10.4 mph - N/A   Overcast
9:54 AM 28.4 °F 19.7 °F 24.8 °F 86% 29.89 in 10.0 mi NW 9.2 mph - N/A   Overcast
10:13 AM 30.2 °F 21.3 °F 24.8 °F 80% 29.89 in 10.0 mi NW 10.4 mph - N/A   Overcast
10:33 AM 30.2 °F 21.3 °F 24.8 °F 80% 29.89 in 10.0 mi NW 10.4 mph - N/A   Overcast
10:54 AM 30.2 °F 21.9 °F 24.8 °F 80% 29.90 in 7.0 mi WNW 9.2 mph - N/A   Overcast
11:13 AM 30.2 °F 22.6 °F 24.8 °F 80% 29.89 in 10.0 mi NW 8.1 mph - N/A   Overcast
11:34 AM 33.8 °F 26.4 °F 26.6 °F 75% 29.90 in 10.0 mi NW 9.2 mph - N/A   Overcast
11:53 AM 32.0 °F 22.1 °F 24.8 °F 75% 29.90 in 10.0 mi WNW 13.8 mph - N/A   Overcast
12:13 PM 33.8 °F 25.3 °F 24.8 °F 70% 29.90 in 10.0 mi NW 11.5 mph 16.1 mph N/A   Overcast
12:34 PM 33.8 °F 26.4 °F 24.8 °F 70% 29.90 in 10.0 mi NW 9.2 mph - N/A   Overcast
12:53 PM 33.8 °F 25.8 °F 24.8 °F 70% 29.90 in 10.0 mi West 10.4 mph - N/A   Overcast
1:13 PM 35.6 °F 28.0 °F 24.8 °F 65% 29.90 in 10.0 mi WNW 10.4 mph - N/A   Mostly Cloudy
1:34 PM 33.8 °F 25.3 °F 24.8 °F 70% 29.90 in 10.0 mi WNW 11.5 mph - N/A   Mostly Cloudy
1:53 PM 33.8 °F 24.3 °F 24.8 °F 70% 29.90 in 10.0 mi WNW 13.8 mph 17.3 mph N/A   Overcast
2:13 PM 33.8 °F 25.8 °F 23.0 °F 65% 29.89 in 10.0 mi WNW 10.4 mph - N/A   Overcast
2:34 PM 33.8 °F 25.3 °F 23.0 °F 65% 29.89 in 10.0 mi NW 11.5 mph - N/A   Overcast
2:53 PM 33.8 °F 23.5 °F 21.2 °F 60% 29.89 in 10.0 mi NW 16.1 mph - N/A   Overcast
3:13 PM 33.8 °F 23.9 °F 21.2 °F 60% 29.89 in 10.0 mi NW 15.0 mph - N/A   Overcast
3:34 PM 33.8 °F 23.5 °F 21.2 °F 60% 29.89 in 10.0 mi WNW 16.1 mph - N/A   Overcast
3:53 PM 33.8 °F 23.9 °F 21.2 °F 60% 29.90 in 10.0 mi WNW 15.0 mph - N/A   Overcast
4:13 PM 33.8 °F 24.3 °F 21.2 °F 60% 29.90 in 10.0 mi WNW 13.8 mph 18.4 mph N/A   Overcast
4:34 PM 33.8 °F 24.8 °F 23.0 °F 65% 29.90 in 10.0 mi WNW 12.7 mph - N/A   Overcast
4:53 PM 33.8 °F 23.9 °F 21.2 °F 60% 29.90 in 10.0 mi WNW 15.0 mph - N/A   Overcast
5:13 PM 33.8 °F 24.3 °F 21.2 °F 60% 29.91 in 10.0 mi NW 13.8 mph - N/A   Overcast
5:34 PM 33.8 °F 24.3 °F 21.2 °F 60% 29.91 in 10.0 mi WNW 13.8 mph - N/A   Overcast
5:53 PM 32.0 °F 23.0 °F 21.2 °F 64% 29.91 in 10.0 mi NW 11.5 mph - N/A   Overcast
6:13 PM 32.0 °F 22.5 °F 21.2 °F 64% 29.91 in 10.0 mi NW 12.7 mph 17.3 mph N/A   Overcast
6:33 PM 32.0 °F 24.2 °F 21.2 °F 64% 29.92 in 10.0 mi NW 9.2 mph - N/A   Scattered Clouds
6:53 PM 30.2 °F 23.4 °F 21.2 °F 69% 29.92 in 10.0 mi NW 6.9 mph - N/A   Scattered Clouds
7:13 PM 30.2 °F 25.4 °F 21.2 °F 69% 29.92 in 10.0 mi WNW 4.6 mph - N/A   Clear
7:33 PM 28.4 °F 24.6 °F 21.2 °F 74% 29.92 in 10.0 mi WNW 3.5 mph - N/A   Clear
7:53 PM 26.6 °F 22.6 °F 21.2 °F 80% 29.92 in 10.0 mi WNW 3.5 mph - N/A   Clear
8:14 PM 26.6 °F 22.6 °F 21.2 °F 80% 29.92 in 10.0 mi West 3.5 mph - N/A   Clear
8:33 PM 26.6 °F - 21.2 °F 80% 29.92 in 10.0 mi Calm Calm - N/A   Clear
8:53 PM 26.6 °F - 21.2 °F 80% 29.93 in 10.0 mi Calm Calm - N/A   Mostly Cloudy
9:14 PM 26.6 °F - 23.0 °F 86% 29.93 in 10.0 mi Calm Calm - N/A   Overcast
9:33 PM 28.4 °F 23.3 °F 21.2 °F 74% 29.93 in 10.0 mi SW 4.6 mph - N/A   Overcast
9:53 PM 26.6 °F 22.6 °F 21.2 °F 80% 29.93 in 10.0 mi SW 3.5 mph - N/A   Scattered Clouds
10:14 PM 26.6 °F - 21.2 °F 80% 29.93 in 10.0 mi Calm Calm - N/A   Scattered Clouds
10:33 PM 26.6 °F - 21.2 °F 80% 29.93 in 10.0 mi Calm Calm - N/A   Clear
10:53 PM 24.8 °F - 21.2 °F 86% 29.93 in 10.0 mi Calm Calm - N/A   Clear
11:14 PM 24.8 °F - 21.2 °F 86% 29.93 in 10.0 mi Calm Calm - N/A   Scattered Clouds
11:33 PM 23.0 °F - 19.4 °F 86% 29.93 in 10.0 mi Calm Calm - N/A   Scattered Clouds
11:53 PM 24.8 °F - 21.2 °F 86% 29.93 in 10.0 mi Calm Calm - N/A   Scattered Clouds